Location: C�mpuri de-Sus
(45.9500°N, 22.5500°E)
Time: 04:57:48
(UTC+00:00)

Cosmos 1447 Rocket - Pass Details

Date: 24 October 2021
Orbit: 954 x 996 km, 82.9° (Epoch: 04 December)

Event Time Altitude Azimuth Distance (km) Brightness Sun altitude
Rises 17:04:47 0° 353° (N) 3,645 7.6 -17.4°
Reaches altitude 10° 17:07:18 10° 355° (N) 2,694 6.9 -17.8°
Maximum altitude 17:13:27 72° 80° (E) 1,002 4.3 -18.9°
Drops below altitude 10° 17:19:34 10° 165° (SSE) 2,681 6.6 -20.0°
Sets 17:22:04 0° 167° (SSE) 3,627 7.3 -20.4°
